| time (UTC) | temp F | wind direction | speed knots | gust knots | rain 1hr in | rain 24hr in | rain mn in | humidity % | barometer mb |
| 20260903081534 | 50 | 360 | 0.0 | 0.0 | 0.00 | 0.21 | 0.00 | 1 | 1008.8 |
| 20260903081036 | 50 | 360 | 0.0 | 0.0 | 0.00 | 0.21 | 0.00 | 1 | 1008.8 |
| 20260903080533 | 50 | 360 | 0.0 | 0.0 | 0.00 | 0.21 | 0.00 | 1 | 1008.6 |
| 20260903080030 | 50 | 360 | 0.0 | 0.0 | 0.00 | 0.21 | 0.00 | 1 | 1008.7 |
| 20260903075529 | 50 | 360 | 0.0 | 0.0 | 0.00 | 0.21 | 0.00 | 1 | 1008.6 |
| 20260903075030 | 50 | 360 | 0.0 | 0.0 | 0.00 | 0.21 | 0.00 | 1 | 1008.5 |
| 20260903074525 | 51 | 360 | 0.0 | 0.0 | 0.00 | 0.21 | 0.00 | 1 | 1008.5 |
| 20260903074024 | 51 | 360 | 0.0 | 0.0 | 0.00 | 0.21 | 0.00 | 1 | 1008.5 |
| 20260903073522 | 51 | 360 | 0.0 | 0.0 | 0.00 | 0.21 | 0.00 | 1 | 1008.4 |
| 20260903073047 | 51 | 360 | 0.0 | 0.0 | 0.00 | 0.21 | 0.00 | 1 | 1008.2 |
| 20260903072509 | 52 | 360 | 0.0 | 0.0 | 0.00 | 0.21 | 0.00 | 1 | 1008.1 |
| 20260903072008 | 52 | 360 | 0.0 | 0.0 | 0.00 | 0.21 | 0.00 | 1 | 1008.1 |
| 20260903071507 | 52 | 360 | 0.0 | 0.0 | 0.00 | 0.21 | 0.00 | 1 | 1008.1 |
| 20260903071004 | 52 | 360 | 0.0 | 0.0 | 0.00 | 0.21 | 0.00 | 1 | 1008.1 |
| 20260903070503 | 52 | 360 | 0.0 | 0.0 | 0.00 | 0.21 | 0.00 | 1 | 1008.0 |
| 20260903070003 | 52 | 360 | 0.0 | 0.0 | 0.00 | 0.21 | 0.21 | 1 | 1008.1 |
| 20260903065600 | 52 | 360 | 0.0 | 0.0 | 0.00 | 0.21 | 0.21 | 1 | 1008.0 |
| 20260903065059 | 52 | 360 | 0.0 | 0.0 | 0.00 | 0.21 | 0.21 | 1 | 1008.0 |
| 20260903064601 | 53 | 360 | 0.0 | 0.0 | 0.00 | 0.21 | 0.21 | 1 | 1008.0 |
| 20260903064056 | 53 | 360 | 0.0 | 0.0 | 0.00 | 0.21 | 0.21 | 1 | 1008.0 |
| 20260903063556 | 53 | 360 | 0.0 | 0.0 | 0.00 | 0.21 | 0.21 | 1 | 1008.0 |
| 20260903063113 | 53 | 360 | 0.0 | 0.0 | 0.00 | 0.21 | 0.21 | 1 | 1008.0 |
| 20260903062553 | 53 | 360 | 0.0 | 0.0 | 0.00 | 0.21 | 0.21 | 1 | 1007.9 |
| 20260903062049 | 53 | 182 | 0.0 | 0.0 | 0.00 | 0.21 | 0.21 | 1 | 1008.0 |
| 20260903061549 | 53 | 182 | 0.0 | 0.0 | 0.00 | 0.21 | 0.21 | 1 | 1008.0 |
| 20260903061051 | 53 | 182 | 0.0 | 0.0 | 0.00 | 0.21 | 0.21 | 1 | 1008.0 |
| 20260903060545 | 53 | 200 | 0.0 | 0.0 | 0.00 | 0.21 | 0.21 | 1 | 1008.1 |
| 20260903060044 | 54 | 231 | 0.0 | 0.0 | 0.00 | 0.21 | 0.21 | 1 | 1007.9 |
| 20260903055544 | 54 | 235 | 0.0 | 0.0 | 0.00 | 0.21 | 0.21 | 1 | 1008.0 |
| 20260903055044 | 54 | 235 | 0.0 | 0.0 | 0.00 | 0.21 | 0.21 | 1 | 1008.0 |
| 20260903054540 | 54 | 274 | 0.0 | 0.0 | 0.00 | 0.21 | 0.21 | 1 | 1007.7 |
| 20260903054038 | 54 | 234 | 0.0 | 0.0 | 0.00 | 0.21 | 0.21 | 1 | 1007.8 |
| 20260903053537 | 54 | 228 | 0.0 | 0.0 | 0.00 | 0.21 | 0.21 | 1 | 1007.9 |
| 20260903053036 | 54 | 228 | 0.0 | 0.0 | 0.00 | 0.21 | 0.21 | 1 | 1007.9 |
| 20260903052534 | 54 | 228 | 0.0 | 0.0 | 0.00 | 0.21 | 0.21 | 1 | 1007.8 |
| 20260903052033 | 54 | 226 | 0.0 | 0.0 | 0.00 | 0.21 | 0.21 | 1 | 1007.9 |
| 20260903051532 | 54 | 226 | 0.0 | 0.0 | 0.00 | 0.21 | 0.21 | 1 | 1008.0 |
| 20260903051029 | 55 | 226 | 0.0 | 0.0 | 0.00 | 0.21 | 0.21 | 1 | 1007.9 |
| 20260903050528 | 55 | 226 | 0.0 | 0.0 | 0.00 | 0.21 | 0.21 | 1 | 1007.8 |
| 20260903050027 | 55 | 236 | 0.0 | 0.0 | 0.00 | 0.21 | 0.21 | 1 | 1007.8 |
| 20260903045528 | 55 | 236 | 0.0 | 0.0 | 0.00 | 0.21 | 0.21 | 1 | 1007.7 |
| 20260903045023 | 55 | 236 | 0.0 | 0.0 | 0.00 | 0.21 | 0.21 | 1 | 1007.8 |
| 20260903044523 | 55 | 236 | 0.0 | 0.0 | 0.01 | 0.21 | 0.21 | 1 | 1007.7 |
| 20260903044023 | 55 | 236 | 0.0 | 0.0 | 0.01 | 0.21 | 0.21 | 1 | 1007.8 |
| 20260903043519 | 55 | 236 | 0.0 | 0.0 | 0.01 | 0.21 | 0.21 | 1 | 1007.7 |
| 20260903043017 | 55 | 244 | 0.0 | 0.0 | 0.01 | 0.21 | 0.21 | 1 | 1007.7 |
| 20260903042516 | 55 | 227 | 0.0 | 0.0 | 0.01 | 0.21 | 0.21 | 1 | 1007.6 |
| 20260903042015 | 55 | 250 | 0.0 | 0.0 | 0.01 | 0.21 | 0.21 | 1 | 1007.5 |
| 20260903041513 | 55 | 217 | 0.0 | 0.0 | 0.01 | 0.21 | 0.21 | 1 | 1007.5 |
| 20260903041011 | 55 | 226 | 0.0 | 0.0 | 0.01 | 0.21 | 0.21 | 1 | 1007.4 |
| 20260903040510 | 55 | 237 | 0.0 | 0.0 | 0.01 | 0.21 | 0.21 | 1 | 1007.2 |
| 20260903040009 | 55 | 237 | 0.0 | 0.0 | 0.01 | 0.21 | 0.21 | 1 | 1007.2 |
| 20260903035506 | 56 | 284 | 0.0 | 0.0 | 0.01 | 0.21 | 0.21 | 1 | 1007.2 |
| 20260903035005 | 56 | 306 | 0.0 | 0.0 | 0.00 | 0.20 | 0.20 | 1 | 1007.2 |
| 20260903034512 | 56 | 290 | 0.0 | 0.0 | 0.00 | 0.20 | 0.20 | 1 | 1007.1 |
| 20260903034002 | 56 | 285 | 0.0 | 0.0 | 0.01 | 0.20 | 0.20 | 1 | 1006.9 |
| 20260903033500 | 56 | 280 | 0.0 | 0.0 | 0.03 | 0.20 | 0.20 | 1 | 1007.1 |
| 20260903033102 | 56 | 280 | 0.0 | 0.0 | 0.04 | 0.20 | 0.20 | 1 | 1007.0 |
| 20260903032558 | 56 | 293 | 0.0 | 0.0 | 0.04 | 0.20 | 0.20 | 1 | 1006.9 |
| 20260903032057 | 56 | 293 | 0.0 | 0.0 | 0.05 | 0.20 | 0.20 | 1 | 1006.8 |
| 20260903031555 | 56 | 280 | 0.0 | 0.0 | 0.05 | 0.20 | 0.20 | 1 | 1006.7 |
| 20260903031056 | 56 | 281 | 0.0 | 0.0 | 0.06 | 0.20 | 0.20 | 1 | 1006.7 |
| 20260903030554 | 57 | 305 | 0.0 | 0.0 | 0.06 | 0.20 | 0.20 | 1 | 1006.7 |
| 20260903030104 | 57 | 289 | 0.0 | 0.0 | 0.06 | 0.20 | 0.20 | 1 | 1006.6 |
| 20260903025549 | 57 | 281 | 0.0 | 0.0 | 0.06 | 0.20 | 0.20 | 1 | 1006.6 |
| 20260903025049 | 58 | 281 | 0.0 | 0.0 | 0.06 | 0.20 | 0.20 | 1 | 1006.7 |
| 20260903024546 | 58 | 262 | 0.0 | 0.0 | 0.06 | 0.20 | 0.20 | 1 | 1006.6 |
| 20260903024044 | 58 | 263 | 0.0 | 0.0 | 0.05 | 0.19 | 0.19 | 1 | 1006.5 |
| 20260903023545 | 58 | 281 | 0.0 | 0.0 | 0.03 | 0.17 | 0.17 | 1 | 1006.6 |
| 20260903023043 | 58 | 281 | 0.0 | 0.0 | 0.02 | 0.16 | 0.16 | 1 | 1006.5 |
| 20260903022541 | 58 | 292 | 0.0 | 0.0 | 0.02 | 0.16 | 0.16 | 1 | 1006.5 |
| 20260903022043 | 59 | 286 | 0.0 | 0.0 | 0.02 | 0.15 | 0.15 | 1 | 1006.6 |
| 20260903021538 | 59 | 287 | 0.0 | 0.0 | 0.02 | 0.15 | 0.15 | 1 | 1006.5 |
| 20260903021037 | 59 | 25 | 0.0 | 0.0 | 0.01 | 0.14 | 0.14 | 1 | 1006.3 |
| 20260903020534 | 59 | 25 | 0.0 | 0.0 | 0.01 | 0.14 | 0.14 | 1 | 1005.9 |
| 20260903020043 | 59 | 25 | 0.0 | 0.0 | 0.01 | 0.14 | 0.14 | 1 | 1005.9 |
| 20260903015532 | 59 | 25 | 0.0 | 0.0 | 0.01 | 0.14 | 0.14 | 1 | 1005.9 |
| 20260903015029 | 59 | 25 | 0.0 | 0.0 | 0.01 | 0.14 | 0.14 | 1 | 1005.9 |
| 20260903014528 | 60 | 25 | 0.0 | 0.0 | 0.01 | 0.14 | 0.14 | 1 | 1005.9 |
| 20260903014029 | 60 | 25 | 0.0 | 0.0 | 0.02 | 0.14 | 0.14 | 1 | 1006.0 |
| 20260903013526 | 60 | 25 | 0.0 | 0.0 | 0.02 | 0.14 | 0.14 | 1 | 1006.0 |
| 20260903013025 | 60 | 25 | 0.0 | 0.0 | 0.02 | 0.14 | 0.14 | 1 | 1006.1 |
| 20260903012523 | 60 | 25 | 0.0 | 0.0 | 0.02 | 0.14 | 0.14 | 1 | 1005.9 |
| 20260903012021 | 60 | 25 | 0.0 | 0.0 | 0.01 | 0.13 | 0.13 | 1 | 1006.1 |
| 20260903011520 | 60 | 25 | 0.0 | 0.0 | 0.01 | 0.13 | 0.13 | 1 | 1005.8 |
| 20260903011019 | 60 | 25 | 0.0 | 0.0 | 0.01 | 0.13 | 0.13 | 2 | 1006.0 |
| 20260903010517 | 60 | 25 | 0.0 | 0.0 | 0.01 | 0.13 | 0.13 | 3 | 1006.1 |
| 20260903010016 | 60 | 25 | 0.0 | 0.0 | 0.01 | 0.13 | 0.13 | 3 | 1006.0 |
| 20260903005514 | 60 | 25 | 0.0 | 0.0 | 0.01 | 0.13 | 0.13 | 2 | 1006.2 |
| 20260903005012 | 60 | 25 | 0.0 | 0.0 | 0.01 | 0.13 | 0.13 | 2 | 1006.0 |
| 20260903004511 | 60 | 25 | 0.0 | 0.0 | 0.01 | 0.13 | 0.13 | 3 | 1006.3 |
| 20260903004010 | 60 | 25 | 0.0 | 0.0 | 0.01 | 0.12 | 0.12 | 4 | 1006.2 |
| 20260903003509 | 60 | 25 | 0.0 | 0.0 | 0.01 | 0.12 | 0.12 | 3 | 1006.4 |
| 20260903003008 | 60 | 25 | 0.0 | 0.0 | 0.01 | 0.12 | 0.12 | 3 | 1006.2 |
| 20260903002507 | 60 | 25 | 0.0 | 0.0 | 0.01 | 0.12 | 0.12 | 4 | 1006.2 |
| 20260903002003 | 61 | 25 | 0.0 | 0.0 | 0.01 | 0.12 | 0.12 | 4 | 1006.2 |
| 20260903001503 | 61 | 25 | 0.0 | 0.0 | 0.01 | 0.12 | 0.12 | 7 | 1006.1 |
| 20260903001003 | 61 | 25 | 0.0 | 0.0 | 0.01 | 0.12 | 0.12 | 9 | 1006.1 |
| 20260903000600 | 61 | 25 | 0.0 | 0.0 | 0.01 | 0.12 | 0.12 | 10 | 1006.1 |
| 20260903000059 | 61 | 25 | 0.0 | 0.0 | 0.01 | 0.12 | 0.12 | 10 | 1006.1 |
| 20260902235557 | 61 | 25 | 0.0 | 0.0 | 0.01 | 0.12 | 0.12 | 7 | 1006.1 |
| 20260902235058 | 61 | 25 | 0.0 | 0.0 | 0.01 | 0.12 | 0.12 | 7 | 1005.9 |
| 20260902234554 | 61 | 25 | 0.0 | 0.0 | 0.01 | 0.12 | 0.12 | 6 | 1006.0 |
| 20260902234052 | 61 | 25 | 0.0 | 0.0 | 0.00 | 0.11 | 0.11 | 8 | 1006.1 |
| 20260902233551 | 61 | 25 | 0.0 | 0.0 | 0.00 | 0.11 | 0.11 | 7 | 1006.3 |
| 20260902233100 | 61 | 25 | 0.0 | 0.0 | 0.00 | 0.11 | 0.11 | 8 | 1006.3 |
| 20260902232548 | 61 | 25 | 0.0 | 0.0 | 0.00 | 0.11 | 0.11 | 8 | 1006.2 |
| 20260902232048 | 61 | 61 | 0.0 | 0.0 | 0.01 | 0.11 | 0.11 | 7 | 1006.3 |
| 20260902231547 | 61 | 61 | 0.0 | 0.0 | 0.01 | 0.11 | 0.11 | 8 | 1006.4 |
| 20260902231046 | 61 | 61 | 0.0 | 0.0 | 0.01 | 0.11 | 0.11 | 7 | 1006.5 |
| 20260902230542 | 61 | 61 | 0.0 | 0.0 | 0.01 | 0.11 | 0.11 | 7 | 1006.4 |
| 20260902230042 | 61 | 61 | 0.0 | 0.0 | 0.01 | 0.11 | 0.11 | 8 | 1006.2 |
| 20260902225541 | 61 | 61 | 0.0 | 0.0 | 0.01 | 0.11 | 0.11 | 8 | 1006.3 |
| 20260902225041 | 61 | 61 | 0.0 | 0.0 | 0.02 | 0.11 | 0.11 | 14 | 1006.3 |
| 20260902224549 | 61 | 61 | 0.0 | 0.0 | 0.02 | 0.11 | 0.11 | 15 | 1006.2 |
| 20260902224038 | 61 | 61 | 0.0 | 0.0 | 0.02 | 0.11 | 0.11 | 14 | 1006.2 |
| 20260902223538 | 61 | 61 | 0.0 | 0.0 | 0.02 | 0.11 | 0.11 | 14 | 1006.2 |
| 20260902223053 | 61 | 61 | 0.0 | 0.0 | 0.03 | 0.11 | 0.11 | 14 | 1006.3 |
| 20260902222537 | 61 | 61 | 0.0 | 0.0 | 0.03 | 0.11 | 0.11 | 16 | 1006.0 |
| 20260902222037 | 61 | 61 | 0.0 | 0.0 | 0.02 | 0.10 | 0.10 | 17 | 1006.1 |
| 20260902221539 | 61 | 61 | 0.0 | 0.0 | 0.02 | 0.10 | 0.10 | 18 | 1006.1 |
| 20260902221036 | 61 | 61 | 0.0 | 0.0 | 0.03 | 0.10 | 0.10 | 24 | 1006.1 |
| 20260902220534 | 61 | 61 | 0.0 | 0.0 | 0.03 | 0.10 | 0.10 | 28 | 1006.0 |
| 20260902220036 | 61 | 61 | 0.0 | 0.0 | 0.03 | 0.10 | 0.10 | 28 | 1005.9 |
| 20260902215532 | 61 | 61 | 0.0 | 0.0 | 0.04 | 0.10 | 0.10 | 26 | 1005.7 |
| 20260902215032 | 61 | 61 | 0.0 | 0.0 | 0.03 | 0.09 | 0.09 | 28 | 1005.6 |
| 20260902214533 | 61 | 61 | 0.0 | 0.0 | 0.03 | 0.09 | 0.09 | 33 | 1005.8 |
| 20260902214031 | 61 | 60 | 0.0 | 0.0 | 0.04 | 0.09 | 0.09 | 36 | 1005.8 |
| 20260902213529 | 61 | 60 | 0.0 | 0.0 | 0.03 | 0.08 | 0.08 | 38 | 1005.7 |
| 20260902213029 | 62 | 62 | 0.0 | 0.0 | 0.03 | 0.08 | 0.08 | 40 | 1005.8 |
| 20260902212529 | 62 | 64 | 0.0 | 0.0 | 0.04 | 0.08 | 0.08 | 40 | 1005.9 |
| 20260902212028 | 62 | 23 | 0.0 | 0.0 | 0.04 | 0.08 | 0.08 | 43 | 1005.9 |
| 20260902211530 | 62 | 134 | 0.0 | 0.0 | 0.03 | 0.07 | 0.07 | 42 | 1006.0 |
| 20260902211028 | 62 | 151 | 0.0 | 0.0 | 0.03 | 0.07 | 0.07 | 42 | 1006.0 |
| 20260902210528 | 62 | 151 | 0.0 | 0.0 | 0.03 | 0.07 | 0.07 | 45 | 1006.1 |
| 20260902210029 | 62 | 151 | 0.0 | 0.0 | 0.03 | 0.07 | 0.07 | 49 | 1006.3 |
| 20260902205527 | 62 | 151 | 0.0 | 0.0 | 0.03 | 0.06 | 0.06 | 51 | 1006.3 |
| 20260902205032 | 63 | 151 | 0.0 | 0.0 | 0.03 | 0.06 | 0.06 | 51 | 1006.3 |
| 20260902204539 | 63 | 142 | 0.0 | 0.0 | 0.02 | 0.05 | 0.05 | 48 | 1006.4 |
| 20260902204031 | 63 | 142 | 0.0 | 0.0 | 0.03 | 0.05 | 0.05 | 45 | 1006.3 |
| 20260902203533 | 63 | 142 | 0.0 | 0.0 | 0.03 | 0.05 | 0.05 | 45 | 1006.3 |
| 20260902203026 | 63 | 142 | 0.0 | 0.0 | 0.04 | 0.05 | 0.05 | 43 | 1006.2 |
| 20260902202526 | 63 | 142 | 0.0 | 0.0 | 0.03 | 0.04 | 0.04 | 46 | 1006.2 |
| 20260902202025 | 63 | 142 | 0.0 | 0.0 | 0.03 | 0.04 | 0.04 | 50 | 1006.2 |
| 20260902201524 | 63 | 142 | 0.0 | 0.0 | 0.03 | 0.04 | 0.04 | 52 | 1006.1 |
| 20260902201023 | 63 | 142 | 0.0 | 0.0 | 0.04 | 0.04 | 0.04 | 55 | 1006.1 |
| 20260902200522 | 63 | 142 | 0.0 | 0.0 | 0.04 | 0.04 | 0.04 | 62 | 1006.0 |
| 20260902200022 | 63 | 142 | 0.0 | 0.0 | 0.04 | 0.04 | 0.04 | 62 | 1006.0 |
| 20260902195521 | 63 | 142 | 0.0 | 0.0 | 0.03 | 0.03 | 0.03 | 65 | 1006.1 |
| 20260902195022 | 63 | 142 | 0.0 | 0.0 | 0.03 | 0.03 | 0.03 | 68 | 1006.0 |
| 20260902194525 | 63 | 142 | 0.0 | 0.0 | 0.03 | 0.03 | 0.03 | 70 | 1006.1 |
| 20260902194021 | 64 | 137 | 0.0 | 0.0 | 0.02 | 0.02 | 0.02 | 70 | 1006.1 |
| 20260902193522 | 64 | 136 | 0.0 | 0.0 | 0.02 | 0.02 | 0.02 | 71 | 1006.1 |
| 20260902193021 | 65 | 132 | 0.0 | 0.0 | 0.01 | 0.01 | 0.01 | 71 | 1005.9 |
| 20260902192520 | 65 | 116 | 0.0 | 0.0 | 0.01 | 0.01 | 0.01 | 70 | 1005.9 |
| 20260902192021 | 65 | 116 | 0.0 | 0.0 | 0.01 | 0.01 | 0.01 | 70 | 1005.9 |
| 20260902191521 | 65 | 116 | 0.0 | 0.0 | 0.01 | 0.01 | 0.01 | 70 | 1005.8 |
| 20260902191020 | 65 | 116 | 0.0 | 0.0 | 0.00 | 0.00 | 0.00 | 69 | 1005.7 |
| 20260902190520 | 65 | 116 | 0.0 | 0.0 | 0.00 | 0.00 | 0.00 | 67 | 1005.8 |
| 20260902190021 | 66 | 116 | 0.0 | 0.0 | 0.00 | 0.00 | 0.00 | 63 | 1005.7 |
| 20260902185519 | 66 | 116 | 0.0 | 0.0 | 0.00 | 0.00 | 0.00 | 61 | 1005.8 |
| 20260902185019 | 66 | 113 | 0.0 | 0.0 | 0.00 | 0.00 | 0.00 | 60 | 1005.8 |
| 20260902184528 | 66 | 161 | 0.0 | 0.0 | 0.00 | 0.00 | 0.00 | 59 | 1005.7 |
| 20260902184017 | 66 | 161 | 0.0 | 0.0 | 0.00 | 0.00 | 0.00 | 58 | 1005.7 |
| 20260902183517 | 66 | 161 | 0.0 | 0.0 | 0.00 | 0.00 | 0.00 | 58 | 1005.7 |
| 20260902183035 | 66 | 161 | 0.0 | 0.0 | 0.00 | 0.00 | 0.00 | 58 | 1005.6 |
| 20260902182515 | 66 | 159 | 0.0 | 0.0 | 0.00 | 0.00 | 0.00 | 58 | 1005.7 |
| 20260902182015 | 66 | 161 | 0.0 | 0.0 | 0.00 | 0.00 | 0.00 | 58 | 1005.7 |
| 20260902181517 | 66 | 161 | 0.0 | 0.0 | 0.00 | 0.00 | 0.00 | 59 | 1005.7 |
| 20260902181014 | 66 | 160 | 0.0 | 0.0 | 0.00 | 0.00 | 0.00 | 58 | 1005.8 |
| 20260902180514 | 66 | 152 | 0.0 | 0.0 | 0.00 | 0.00 | 0.00 | 59 | 1005.8 |
| 20260902180014 | 66 | 153 | 0.0 | 0.0 | 0.00 | 0.00 | 0.00 | 60 | 1005.7 |
| 20260902175512 | 65 | 36 | 0.0 | 0.0 | 0.00 | 0.00 | 0.00 | 62 | 1005.8 |
| 20260902175011 | 65 | 38 | 0.0 | 0.0 | 0.00 | 0.00 | 0.00 | 62 | 1005.8 |
| 20260902174516 | 65 | 40 | 0.0 | 0.0 | 0.00 | 0.00 | 0.00 | 62 | 1005.8 |
| 20260902174009 | 65 | 52 | 0.0 | 0.0 | 0.00 | 0.00 | 0.00 | 62 | 1005.8 |
| 20260902173508 | 64 | 30 | 0.0 | 0.0 | 0.00 | 0.00 | 0.00 | 64 | 1005.9 |
| 20260902173011 | 64 | 19 | 0.0 | 0.0 | 0.00 | 0.00 | 0.00 | 64 | 1006.0 |
| 20260902172507 | 64 | 68 | 0.0 | 0.0 | 0.00 | 0.00 | 0.00 | 63 | 1006.1 |
| 20260902172007 | 64 | 49 | 0.0 | 0.0 | 0.00 | 0.00 | 0.00 | 64 | 1006.2 |
| 20260902171505 | 64 | 36 | 0.0 | 0.0 | 0.00 | 0.00 | 0.00 | 64 | 1006.2 |
| 20260902171004 | 63 | 40 | 0.0 | 0.0 | 0.00 | 0.00 | 0.00 | 64 | 1006.3 |
| 20260902170504 | 63 | 63 | 0.0 | 0.0 | 0.00 | 0.00 | 0.00 | 65 | 1006.2 |
| 20260902170003 | 63 | 5 | 0.0 | 0.0 | 0.00 | 0.00 | 0.00 | 66 | 1006.3 |
| 20260902165501 | 63 | 23 | 0.0 | 0.0 | 0.00 | 0.00 | 0.00 | 66 | 1006.4 |
| 20260902165100 | 63 | 258 | 0.0 | 0.0 | 0.00 | 0.00 | 0.00 | 66 | 1006.4 |
| 20260902164605 | 62 | 258 | 0.0 | 0.0 | 0.00 | 0.00 | 0.00 | 66 | 1006.5 |
| 20260902164058 | 62 | 234 | 0.0 | 0.0 | 0.00 | 0.00 | 0.00 | 68 | 1006.5 |
| 20260902163558 | 62 | 225 | 0.0 | 0.0 | 0.00 | 0.00 | 0.00 | 69 | 1006.5 |
| 20260902163102 | 61 | 225 | 0.0 | 0.0 | 0.00 | 0.00 | 0.00 | 69 | 1006.5 |
| 20260902162556 | 61 | 225 | 0.0 | 0.0 | 0.00 | 0.00 | 0.00 | 69 | 1006.6 |
| 20260902162057 | 61 | 224 | 0.0 | 0.0 | 0.00 | 0.00 | 0.00 | 70 | 1006.6 |
| 20260902161558 | 61 | 224 | 0.0 | 0.0 | 0.00 | 0.00 | 0.00 | 70 | 1006.8 |
| 20260902161058 | 60 | 224 | 0.0 | 0.0 | 0.00 | 0.00 | 0.00 | 71 | 1006.8 |
| 20260902160556 | 60 | 224 | 0.0 | 0.0 | 0.00 | 0.00 | 0.00 | 71 | 1006.7 |
| 20260902160056 | 60 | 224 | 0.0 | 0.0 | 0.00 | 0.00 | 0.00 | 71 | 1006.8 |
| 20260902155555 | 60 | 224 | 0.0 | 0.0 | 0.00 | 0.00 | 0.00 | 71 | 1006.8 |
| 20260902155055 | 59 | 201 | 0.0 | 0.0 | 0.00 | 0.00 | 0.00 | 72 | 1006.9 |
| 20260902154554 | 59 | 199 | 0.0 | 0.0 | 0.00 | 0.00 | 0.00 | 72 | 1006.8 |
| 20260902154054 | 59 | 199 | 0.0 | 0.0 | 0.00 | 0.00 | 0.00 | 72 | 1006.9 |
| 20260902153555 | 59 | 199 | 0.0 | 0.0 | 0.00 | 0.00 | 0.00 | 72 | 1007.0 |
| 20260902153105 | 58 | 199 | 0.0 | 0.0 | 0.00 | 0.00 | 0.00 | 71 | 1007.1 |
| 20260902152558 | 58 | 199 | 0.0 | 0.0 | 0.00 | 0.00 | 0.00 | 71 | 1007.2 |
| 20260902152052 | 58 | 199 | 0.0 | 0.0 | 0.00 | 0.00 | 0.00 | 70 | 1007.2 |
| 20260902151554 | 58 | 199 | 0.0 | 0.0 | 0.00 | 0.00 | 0.00 | 71 | 1007.1 |
| 20260902151055 | 58 | 199 | 0.0 | 0.0 | 0.00 | 0.00 | 0.00 | 71 | 1007.2 |
| 20260902150551 | 57 | 199 | 0.0 | 0.0 | 0.00 | 0.00 | 0.00 | 70 | 1007.2 |
| 20260902150051 | 57 | 199 | 0.0 | 0.0 | 0.00 | 0.00 | 0.00 | 70 | 1007.4 |
| 20260902145550 | 57 | 199 | 0.0 | 0.0 | 0.00 | 0.00 | 0.00 | 69 | 1007.4 |
| 20260902145053 | 57 | 199 | 0.0 | 0.0 | 0.00 | 0.00 | 0.00 | 69 | 1007.4 |
| 20260902144550 | 57 | 199 | 0.0 | 0.0 | 0.00 | 0.00 | 0.00 | 70 | 1007.4 |
| 20260902144050 | 57 | 199 | 0.0 | 0.0 | 0.00 | 0.00 | 0.00 | 70 | 1007.3 |
| 20260902143550 | 56 | 199 | 0.0 | 0.0 | 0.00 | 0.00 | 0.00 | 70 | 1007.4 |
| 20260902143052 | 56 | 199 | 0.0 | 0.0 | 0.00 | 0.00 | 0.00 | 70 | 1007.6 |
| 20260902142549 | 56 | 199 | 0.0 | 0.0 | 0.00 | 0.00 | 0.00 | 71 | 1007.6 |
| 20260902142049 | 56 | 199 | 0.0 | 0.0 | 0.00 | 0.00 | 0.00 | 71 | 1007.6 |
| 20260902141549 | 56 | 199 | 0.0 | 0.0 | 0.00 | 0.00 | 0.00 | 71 | 1007.6 |
| 20260902141048 | 56 | 199 | 0.0 | 0.0 | 0.00 | 0.00 | 0.00 | 71 | 1007.5 |
| 20260902140549 | 56 | 199 | 0.0 | 0.0 | 0.00 | 0.00 | 0.00 | 71 | 1007.6 |
| 20260902140051 | 56 | 199 | 0.0 | 0.0 | 0.00 | 0.00 | 0.00 | 72 | 1007.7 |
| 20260902135548 | 56 | 199 | 0.0 | 0.0 | 0.00 | 0.00 | 0.00 | 72 | 1007.7 |
| 20260902135047 | 56 | 199 | 0.0 | 0.0 | 0.00 | 0.00 | 0.00 | 72 | 1007.6 |
| 20260902134548 | 56 | 199 | 0.0 | 0.0 | 0.00 | 0.00 | 0.00 | 72 | 1007.5 |
| 20260902134046 | 56 | 199 | 0.0 | 0.0 | 0.00 | 0.00 | 0.00 | 72 | 1007.4 |
| 20260902133545 | 56 | 197 | 0.0 | 0.0 | 0.00 | 0.00 | 0.00 | 72 | 1007.7 |
| 20260902133044 | 56 | 198 | 0.0 | 0.0 | 0.00 | 0.00 | 0.00 | 72 | 1007.7 |
| 20260902132543 | 56 | 198 | 0.0 | 0.0 | 0.00 | 0.00 | 0.00 | 72 | 1007.8 |
| 20260902132043 | 57 | 198 | 0.0 | 0.0 | 0.00 | 0.00 | 0.00 | 72 | 1007.9 |
| 20260902131543 | 57 | 198 | 0.0 | 0.0 | 0.00 | 0.00 | 0.00 | 72 | 1007.9 |
| 20260902131043 | 57 | 194 | 0.0 | 0.0 | 0.00 | 0.00 | 0.00 | 72 | 1007.9 |
| 20260902130543 | 57 | 183 | 0.0 | 0.0 | 0.00 | 0.00 | 0.00 | 72 | 1008.0 |
| 20260902130043 | 57 | 186 | 0.0 | 0.0 | 0.00 | 0.00 | 0.00 | 72 | 1007.9 |
| 20260902125542 | 57 | 188 | 0.0 | 0.0 | 0.00 | 0.00 | 0.00 | 72 | 1008.0 |
| 20260902125141 | 57 | 215 | 0.0 | 0.0 | 0.00 | 0.00 | 0.00 | 72 | 1008.0 |
| 20260902124541 | 57 | 149 | 0.0 | 0.0 | 0.00 | 0.00 | 0.00 | 72 | 1007.9 |
| 20260902124041 | 57 | 145 | 0.0 | 0.0 | 0.00 | 0.00 | 0.00 | 72 | 1007.9 |
| 20260902123539 | 57 | 150 | 0.0 | 0.0 | 0.00 | 0.00 | 0.00 | 72 | 1007.9 |
| 20260902123039 | 58 | 148 | 0.0 | 0.0 | 0.00 | 0.00 | 0.00 | 71 | 1008.0 |
| 20260902122539 | 58 | 221 | 0.0 | 0.0 | 0.00 | 0.00 | 0.00 | 72 | 1008.0 |
| 20260902122037 | 58 | 221 | 0.0 | 0.0 | 0.00 | 0.00 | 0.00 | 71 | 1008.0 |
| 20260902121539 | 58 | 221 | 0.0 | 0.0 | 0.00 | 0.00 | 0.00 | 71 | 1007.8 |
| 20260902121037 | 58 | 221 | 0.0 | 0.0 | 0.00 | 0.00 | 0.00 | 71 | 1007.9 |
| 20260902120537 | 58 | 221 | 0.0 | 0.0 | 0.00 | 0.00 | 0.00 | 71 | 1007.9 |
| 20260902120036 | 58 | 234 | 0.0 | 0.0 | 0.00 | 0.00 | 0.00 | 71 | 1008.0 |
| 20260902115535 | 58 | 242 | 0.0 | 0.0 | 0.00 | 0.00 | 0.00 | 71 | 1008.0 |
| 20260902115035 | 58 | 227 | 0.0 | 0.0 | 0.00 | 0.00 | 0.00 | 71 | 1008.1 |
| 20260902114535 | 59 | 222 | 0.0 | 0.0 | 0.00 | 0.00 | 0.00 | 71 | 1008.0 |
| 20260902114034 | 59 | 222 | 0.0 | 0.0 | 0.00 | 0.00 | 0.00 | 71 | 1008.1 |
| 20260902113533 | 59 | 222 | 0.0 | 0.0 | 0.00 | 0.00 | 0.00 | 71 | 1008.0 |
| 20260902113034 | 59 | 222 | 0.0 | 0.0 | 0.00 | 0.00 | 0.00 | 71 | 1008.0 |
| 20260902112533 | 59 | 259 | 0.0 | 0.0 | 0.00 | 0.00 | 0.00 | 71 | 1008.1 |
| 20260902112033 | 59 | 259 | 0.0 | 0.0 | 0.00 | 0.00 | 0.00 | 71 | 1008.1 |
| 20260902111533 | 59 | 260 | 0.0 | 0.0 | 0.00 | 0.00 | 0.00 | 71 | 1008.1 |
| 20260902111158 | 59 | 263 | 0.0 | 0.0 | 0.00 | 0.00 | 0.00 | 71 | 1008.0 |
| 20260902110534 | 59 | 296 | 0.0 | 0.0 | 0.00 | 0.00 | 0.00 | 71 | 1008.1 |
| 20260902110044 | 59 | 296 | 0.0 | 0.0 | 0.00 | 0.00 | 0.00 | 71 | 1008.0 |
| 20260902105532 | 59 | 266 | 0.0 | 0.0 | 0.00 | 0.00 | 0.00 | 71 | 1008.0 |
| 20260902105032 | 59 | 263 | 0.0 | 0.0 | 0.00 | 0.00 | 0.00 | 71 | 1008.1 |
| 20260902104550 | 59 | 288 | 0.0 | 0.0 | 0.00 | 0.00 | 0.00 | 72 | 1007.9 |
| 20260902104030 | 59 | 267 | 0.0 | 0.0 | 0.00 | 0.00 | 0.00 | 72 | 1007.9 |
| 20260902103529 | 59 | 273 | 0.0 | 0.0 | 0.00 | 0.00 | 0.00 | 71 | 1008.1 |
| 20260902103046 | 59 | 264 | 0.0 | 0.0 | 0.00 | 0.00 | 0.00 | 71 | 1008.2 |
| 20260902102530 | 60 | 248 | 0.0 | 0.0 | 0.00 | 0.00 | 0.00 | 71 | 1008.1 |
| 20260902102029 | 60 | 213 | 0.0 | 0.0 | 0.00 | 0.00 | 0.00 | 71 | 1008.2 |
| 20260902101528 | 60 | 223 | 0.0 | 0.0 | 0.00 | 0.00 | 0.00 | 71 | 1008.2 |
| 20260902101030 | 60 | 271 | 0.0 | 0.0 | 0.00 | 0.00 | 0.00 | 71 | 1008.2 |
| 20260902100528 | 60 | 263 | 0.0 | 0.0 | 0.00 | 0.00 | 0.00 | 71 | 1008.2 |
| 20260902100028 | 59 | 196 | 0.0 | 0.0 | 0.00 | 0.00 | 0.00 | 71 | 1008.3 |
| 20260902095528 | 59 | 252 | 0.0 | 0.0 | 0.00 | 0.00 | 0.00 | 71 | 1008.3 |
| 20260902095027 | 59 | 277 | 0.0 | 0.0 | 0.00 | 0.00 | 0.00 | 71 | 1008.3 |
| 20260902094528 | 59 | 254 | 0.0 | 0.0 | 0.00 | 0.00 | 0.00 | 71 | 1008.2 |
| 20260902094027 | 59 | 267 | 0.0 | 0.0 | 0.00 | 0.00 | 0.00 | 71 | 1008.3 |
| 20260902093527 | 59 | 272 | 0.0 | 0.0 | 0.00 | 0.00 | 0.00 | 71 | 1008.1 |
| 20260902093026 | 60 | 293 | 0.0 | 0.0 | 0.00 | 0.00 | 0.00 | 71 | 1008.3 |
| 20260902092528 | 60 | 298 | 0.0 | 0.0 | 0.00 | 0.00 | 0.00 | 71 | 1008.4 |
| 20260902092026 | 60 | 251 | 0.0 | 0.0 | 0.00 | 0.00 | 0.00 | 71 | 1008.4 |
| 20260902091527 | 60 | 263 | 0.0 | 0.0 | 0.00 | 0.00 | 0.00 | 71 | 1008.3 |
| 20260902091026 | 60 | 268 | 0.0 | 0.0 | 0.00 | 0.00 | 0.00 | 71 | 1008.4 |
| 20260902090525 | 60 | 286 | 0.0 | 0.0 | 0.00 | 0.00 | 0.00 | 71 | 1008.4 |
| 20260902090029 | 60 | 288 | 0.0 | 0.0 | 0.00 | 0.00 | 0.00 | 71 | 1008.4 |
| 20260902085528 | 60 | 281 | 0.0 | 0.0 | 0.00 | 0.00 | 0.00 | 71 | 1008.4 |
| 20260902085024 | 60 | 290 | 0.0 | 0.0 | 0.00 | 0.00 | 0.00 | 71 | 1008.3 |
| 20260902084534 | 60 | 262 | 0.0 | 0.0 | 0.00 | 0.00 | 0.00 | 71 | 1008.4 |
| 20260902084027 | 60 | 248 | 0.0 | 0.0 | 0.00 | 0.00 | 0.00 | 71 | 1008.4 |
| 20260902083528 | 60 | 306 | 0.0 | 0.0 | 0.00 | 0.00 | 0.00 | 71 | 1008.4 |
| 20260902083023 | 60 | 299 | 0.0 | 0.0 | 0.00 | 0.00 | 0.00 | 71 | 1008.3 |
| 20260902082524 | 60 | 286 | 0.0 | 0.0 | 0.00 | 0.00 | 0.00 | 71 | 1008.4 |
| 20260902082022 | 60 | 283 | 0.0 | 0.0 | 0.00 | 0.00 | 0.00 | 71 | 1008.4 |